Location: Asheville, NC
(35.6000°N, 82.5500°W)
Time: 09:27:32

ZACube-1 - Pass Details

Date: 18 March 2018
Orbit: 584 x 669 km, 97.6° (Epoch: 19 March)

Event Time Altitude Azimuth Distance (km) Brightness Sun altitude
Rises 21:07:51 0° 182° (S) 2,872 ? -18.5°
Reaches altitude 10° 21:10:09 10° 190° (S) 1,957 ? -18.9°
Maximum altitude 21:14:10 42° 261° (W) 863 ? -19.7°
Drops below altitude 10° 21:18:09 10° 333° (NNW) 1,930 ? -20.5°
Sets 21:20:24 0° 340° (NNW) 2,826 ? -20.9°
